contact:dominique.lefevre@mio.osupytheas.fr, maurice.libes@osupytheas.fr, didier.mallarino@osupytheas.fr
Project:EMSO http://www.emso-fr.org/EMSO-France
Depth: 2436.0 m
Title:EMSO Ligure Ouest : Data MII capteur MICROCAT
DateTime_Computer,Latitude,Longitude,Temperature,Conductivity,Pressure,DateTime_Instrument
DateTime_Computer,Latitude,Longitude,degC,S m-1,dbar,DateTime_Instrument
2021-11-16T00:00:06Z,42.805,6.029,13.2998,4.60028,2470.31,2021-11-16T02:01:32Z
2021-11-16T00:03:10Z,42.805,6.029,13.2997,4.60026,2470.287,2021-11-16T02:04:36Z
2021-11-16T00:06:13Z,42.805,6.029,13.2999,4.60028,2470.273,2021-11-16T02:07:39Z
2021-11-16T00:09:16Z,42.805,6.029,13.2993,4.60017,2470.297,2021-11-16T02:10:42Z
2021-11-16T00:12:19Z,42.805,6.029,13.2997,4.60029,2470.273,2021-11-16T02:13:45Z
2021-11-16T00:15:22Z,42.805,6.029,13.2998,4.60019,2470.31,2021-11-16T02:16:48Z
2021-11-16T00:18:25Z,42.805,6.029,13.2992,4.60024,2470.297,2021-11-16T02:19:51Z
2021-11-16T00:21:28Z,42.805,6.029,13.2996,4.60024,2470.287,2021-11-16T02:22:54Z
2021-11-16T00:24:31Z,42.805,6.029,13.2995,4.60029,2470.273,2021-11-16T02:25:57Z
2021-11-16T00:27:35Z,42.805,6.029,13.2996,4.60026,2470.297,2021-11-16T02:29:01Z
2021-11-16T00:30:38Z,42.805,6.029,13.2996,4.60024,2470.31,2021-11-16T02:32:04Z
2021-11-16T00:33:41Z,42.805,6.029,13.2997,4.60029,2470.31,2021-11-16T02:35:07Z
2021-11-16T00:36:44Z,42.805,6.029,13.2995,4.60025,2470.273,2021-11-16T02:38:10Z
2021-11-16T00:39:47Z,42.805,6.029,13.2996,4.60028,2470.273,2021-11-16T02:41:13Z
2021-11-16T00:42:50Z,42.805,6.029,13.2996,4.60026,2470.273,2021-11-16T02:44:16Z
2021-11-16T00:45:53Z,42.805,6.029,13.2987,4.60022,2470.334,2021-11-16T02:47:19Z
2021-11-16T00:48:56Z,42.805,6.029,13.2991,4.60021,2470.32,2021-11-16T02:50:22Z
2021-11-16T00:52:00Z,42.805,6.029,13.2993,4.60022,2470.31,2021-11-16T02:53:26Z
2021-11-16T00:55:03Z,42.805,6.029,13.3001,4.60033,2470.297,2021-11-16T02:56:29Z
2021-11-16T00:58:06Z,42.805,6.029,13.2997,4.60029,2470.297,2021-11-16T02:59:32Z
2021-11-16T01:01:09Z,42.805,6.029,13.2989,4.60021,2470.297,2021-11-16T03:02:35Z
2021-11-16T01:04:12Z,42.805,6.029,13.2996,4.60035,2470.297,2021-11-16T03:05:38Z
2021-11-16T01:07:15Z,42.805,6.029,13.2988,4.60022,2470.273,2021-11-16T03:08:41Z
2021-11-16T01:10:18Z,42.805,6.029,13.2994,4.60023,2470.334,2021-11-16T03:11:44Z
2021-11-16T01:13:21Z,42.805,6.029,13.2996,4.60020,2470.334,2021-11-16T03:14:47Z
2021-11-16T01:16:25Z,42.805,6.029,13.2991,4.60021,2470.334,2021-11-16T03:17:51Z
2021-11-16T01:19:28Z,42.805,6.029,13.2998,4.60016,2470.357,2021-11-16T03:20:54Z
2021-11-16T01:22:31Z,42.805,6.029,13.2991,4.60026,2470.297,2021-11-16T03:23:57Z
2021-11-16T01:25:34Z,42.805,6.029,13.2991,4.60024,2470.297,2021-11-16T03:27:00Z
2021-11-16T01:28:37Z,42.805,6.029,13.2993,4.60029,2470.32,2021-11-16T03:30:03Z
2021-11-16T01:31:40Z,42.805,6.029,13.2997,4.60024,2470.343,2021-11-16T03:33:06Z
2021-11-16T01:34:43Z,42.805,6.029,13.2995,4.60023,2470.343,2021-11-16T03:36:09Z
2021-11-16T01:37:46Z,42.805,6.029,13.2996,4.60020,2470.334,2021-11-16T03:39:12Z
2021-11-16T01:40:50Z,42.805,6.029,13.3000,4.60021,2470.31,2021-11-16T03:42:16Z
2021-11-16T01:43:53Z,42.805,6.029,13.2991,4.60029,2470.334,2021-11-16T03:45:19Z
2021-11-16T01:46:56Z,42.805,6.029,13.2993,4.60029,2470.334,2021-11-16T03:48:22Z
2021-11-16T01:49:59Z,42.805,6.029,13.2994,4.60025,2470.357,2021-11-16T03:51:25Z
2021-11-16T01:53:02Z,42.805,6.029,13.2996,4.60027,2470.32,2021-11-16T03:54:28Z
2021-11-16T01:56:05Z,42.805,6.029,13.2990,4.60019,2470.32,2021-11-16T03:57:31Z
2021-11-16T01:59:08Z,42.805,6.029,13.2996,4.60022,2470.343,2021-11-16T04:00:34Z
2021-11-16T02:02:11Z,42.805,6.029,13.2998,4.60021,2470.366,2021-11-16T04:03:37Z
2021-11-16T02:05:15Z,42.805,6.029,13.2991,4.60020,2470.334,2021-11-16T04:06:41Z
2021-11-16T02:08:18Z,42.805,6.029,13.2993,4.60020,2470.343,2021-11-16T04:09:44Z
2021-11-16T02:11:21Z,42.805,6.029,13.2998,4.60026,2470.343,2021-11-16T04:12:47Z
2021-11-16T02:14:24Z,42.805,6.029,13.2991,4.60019,2470.32,2021-11-16T04:15:50Z
2021-11-16T02:17:27Z,42.805,6.029,13.2989,4.60019,2470.343,2021-11-16T04:18:53Z
2021-11-16T02:20:30Z,42.805,6.029,13.2996,4.60022,2470.38,2021-11-16T04:21:56Z
2021-11-16T02:23:33Z,42.805,6.029,13.2995,4.60022,2470.427,2021-11-16T04:24:59Z
2021-11-16T02:26:36Z,42.805,6.029,13.2993,4.60016,2470.39,2021-11-16T04:28:02Z
2021-11-16T02:29:39Z,42.805,6.029,13.2990,4.60032,2470.357,2021-11-16T04:31:06Z
2021-11-16T02:32:43Z,42.805,6.029,13.3000,4.60026,2470.366,2021-11-16T04:34:09Z
2021-11-16T02:35:46Z,42.805,6.029,13.2996,4.60023,2470.343,2021-11-16T04:37:12Z
2021-11-16T02:38:49Z,42.805,6.029,13.2995,4.60020,2470.366,2021-11-16T04:40:15Z
2021-11-16T02:41:52Z,42.805,6.029,13.2994,4.60024,2470.343,2021-11-16T04:43:18Z
2021-11-16T02:44:55Z,42.805,6.029,13.2995,4.60016,2470.366,2021-11-16T04:46:21Z
2021-11-16T02:47:58Z,42.805,6.029,13.2993,4.60027,2470.366,2021-11-16T04:49:24Z
2021-11-16T02:51:01Z,42.805,6.029,13.2993,4.60025,2470.38,2021-11-16T04:52:27Z
2021-11-16T02:54:04Z,42.805,6.029,13.3000,4.60024,2470.357,2021-11-16T04:55:31Z
2021-11-16T02:57:08Z,42.805,6.029,13.2991,4.60021,2470.39,2021-11-16T04:58:34Z
2021-11-16T03:00:11Z,42.805,6.029,13.2995,4.60021,2470.404,2021-11-16T05:01:37Z
2021-11-16T03:03:14Z,42.805,6.029,13.2994,4.60019,2470.32,2021-11-16T05:04:40Z
2021-11-16T03:06:17Z,42.805,6.029,13.2996,4.60021,2470.404,2021-11-16T05:07:43Z
2021-11-16T03:09:20Z,42.805,6.029,13.2996,4.60024,2470.39,2021-11-16T05:10:46Z
2021-11-16T03:12:23Z,42.805,6.029,13.2995,4.60018,2470.39,2021-11-16T05:13:49Z
2021-11-16T03:15:26Z,42.805,6.029,13.2990,4.60019,2470.366,2021-11-16T05:16:52Z
2021-11-16T03:18:29Z,42.805,6.029,13.2995,4.60018,2470.394,2021-11-16T05:19:55Z
2021-11-16T03:21:33Z,42.805,6.029,13.2996,4.60019,2470.404,2021-11-16T05:22:59Z
2021-11-16T03:24:36Z,42.805,6.029,13.3000,4.60020,2470.38,2021-11-16T05:26:02Z
2021-11-16T03:27:39Z,42.805,6.029,13.2992,4.60031,2470.38,2021-11-16T05:29:05Z
2021-11-16T03:30:42Z,42.805,6.029,13.2993,4.60019,2470.39,2021-11-16T05:32:08Z
2021-11-16T03:33:45Z,42.805,6.029,13.2990,4.60019,2470.413,2021-11-16T05:35:11Z
2021-11-16T03:36:48Z,42.805,6.029,13.2996,4.60026,2470.366,2021-11-16T05:38:14Z
2021-11-16T03:39:51Z,42.805,6.029,13.3001,4.60027,2470.366,2021-11-16T05:41:17Z
2021-11-16T03:42:54Z,42.805,6.029,13.2999,4.60020,2470.39,2021-11-16T05:44:20Z
2021-11-16T03:45:58Z,42.805,6.029,13.2994,4.60027,2470.404,2021-11-16T05:47:24Z
2021-11-16T03:49:01Z,42.805,6.029,13.2997,4.60021,2470.427,2021-11-16T05:50:27Z
2021-11-16T03:52:04Z,42.805,6.029,13.2996,4.60020,2470.39,2021-11-16T05:53:30Z
2021-11-16T03:55:07Z,42.805,6.029,13.2996,4.60023,2470.413,2021-11-16T05:56:33Z
2021-11-16T03:58:10Z,42.805,6.029,13.2997,4.60019,2470.39,2021-11-16T05:59:36Z
2021-11-16T04:01:13Z,42.805,6.029,13.2993,4.60021,2470.427,2021-11-16T06:02:39Z
2021-11-16T04:04:16Z,42.805,6.029,13.2991,4.60021,2470.413,2021-11-16T06:05:42Z
2021-11-16T04:07:19Z,42.805,6.029,13.2999,4.60029,2470.413,2021-11-16T06:08:45Z
2021-11-16T04:10:23Z,42.805,6.029,13.2994,4.60029,2470.404,2021-11-16T06:11:49Z
2021-11-16T04:13:26Z,42.805,6.029,13.2999,4.60021,2470.413,2021-11-16T06:14:52Z
2021-11-16T04:16:29Z,42.805,6.029,13.3000,4.60032,2470.45,2021-11-16T06:17:55Z
2021-11-16T04:19:32Z,42.805,6.029,13.2998,4.60024,2470.39,2021-11-16T06:20:58Z
2021-11-16T04:22:35Z,42.805,6.029,13.2997,4.60022,2470.423,2021-11-16T06:24:01Z
2021-11-16T04:25:38Z,42.805,6.029,13.2996,4.60021,2470.38,2021-11-16T06:27:04Z
2021-11-16T04:28:41Z,42.805,6.029,13.2993,4.60025,2470.427,2021-11-16T06:30:07Z
2021-11-16T04:31:44Z,42.805,6.029,13.2997,4.60033,2470.437,2021-11-16T06:33:10Z
2021-11-16T04:34:48Z,42.805,6.029,13.3000,4.60041,2470.437,2021-11-16T06:36:14Z
2021-11-16T04:37:51Z,42.805,6.029,13.3001,4.60034,2470.45,2021-11-16T06:39:17Z
2021-11-16T04:40:54Z,42.805,6.029,13.2997,4.60033,2470.437,2021-11-16T06:42:20Z
2021-11-16T04:43:57Z,42.805,6.029,13.2997,4.60022,2470.437,2021-11-16T06:45:23Z
2021-11-16T04:47:00Z,42.805,6.029,13.2995,4.60021,2470.427,2021-11-16T06:48:26Z
2021-11-16T04:50:03Z,42.805,6.029,13.2997,4.60023,2470.45,2021-11-16T06:51:29Z
2021-11-16T04:53:06Z,42.805,6.029,13.2998,4.60024,2470.427,2021-11-16T06:54:32Z
2021-11-16T04:56:09Z,42.805,6.029,13.3000,4.60026,2470.45,2021-11-16T06:57:35Z
2021-11-16T04:59:13Z,42.805,6.029,13.2995,4.60024,2470.483,2021-11-16T07:00:39Z
2021-11-16T05:02:16Z,42.805,6.029,13.2996,4.60022,2470.437,2021-11-16T07:03:42Z
2021-11-16T05:05:19Z,42.805,6.029,13.2997,4.60025,2470.413,2021-11-16T07:06:45Z
2021-11-16T05:08:22Z,42.805,6.029,13.2998,4.60022,2470.437,2021-11-16T07:09:48Z
2021-11-16T05:11:25Z,42.805,6.029,13.2994,4.60024,2470.413,2021-11-16T07:12:51Z
2021-11-16T05:14:28Z,42.805,6.029,13.2998,4.60024,2470.437,2021-11-16T07:15:54Z
2021-11-16T05:17:31Z,42.805,6.029,13.2999,4.60022,2470.413,2021-11-16T07:18:57Z
2021-11-16T05:20:34Z,42.805,6.029,13.2998,4.60025,2470.45,2021-11-16T07:22:00Z
2021-11-16T05:23:38Z,42.805,6.029,13.2998,4.60033,2470.404,2021-11-16T07:25:04Z
2021-11-16T05:26:41Z,42.805,6.029,13.2995,4.60030,2470.437,2021-11-16T07:28:07Z
2021-11-16T05:29:44Z,42.805,6.029,13.2996,4.60023,2470.45,2021-11-16T07:31:10Z
2021-11-16T05:32:47Z,42.805,6.029,13.2997,4.60028,2470.437,2021-11-16T07:34:13Z
2021-11-16T05:35:50Z,42.805,6.029,13.2991,4.60017,2470.45,2021-11-16T07:37:16Z
2021-11-16T05:38:53Z,42.805,6.029,13.2999,4.60027,2470.427,2021-11-16T07:40:19Z
2021-11-16T05:41:56Z,42.805,6.029,13.2996,4.60024,2470.437,2021-11-16T07:43:22Z
2021-11-16T05:44:59Z,42.805,6.029,13.2993,4.60031,2470.437,2021-11-16T07:46:25Z
2021-11-16T05:48:02Z,42.805,6.029,13.3000,4.60028,2470.437,2021-11-16T07:49:29Z
2021-11-16T05:51:06Z,42.805,6.029,13.2996,4.60024,2470.437,2021-11-16T07:52:32Z
2021-11-16T05:54:09Z,42.805,6.029,13.2998,4.60025,2470.45,2021-11-16T07:55:35Z
2021-11-16T05:57:12Z,42.805,6.029,13.2999,4.60026,2470.427,2021-11-16T07:58:38Z
2021-11-16T06:00:15Z,42.805,6.029,13.3000,4.60033,2470.404,2021-11-16T08:01:41Z
2021-11-16T06:03:18Z,42.805,6.029,13.2996,4.60026,2470.483,2021-11-16T08:04:44Z
2021-11-16T06:06:21Z,42.805,6.029,13.2991,4.60029,2470.437,2021-11-16T08:07:47Z
2021-11-16T06:09:24Z,42.805,6.029,13.3004,4.60042,2470.45,2021-11-16T08:10:50Z
2021-11-16T06:12:27Z,42.805,6.029,13.3003,4.60042,2470.45,2021-11-16T08:13:54Z
2021-11-16T06:15:31Z,42.805,6.029,13.3000,4.60033,2470.427,2021-11-16T08:16:57Z
2021-11-16T06:18:34Z,42.805,6.029,13.2994,4.60033,2470.39,2021-11-16T08:20:00Z
2021-11-16T06:21:37Z,42.805,6.029,13.2996,4.60028,2470.45,2021-11-16T08:23:03Z
2021-11-16T06:24:40Z,42.805,6.029,13.2997,4.60025,2470.399,2021-11-16T08:26:06Z
2021-11-16T06:27:43Z,42.805,6.029,13.3003,4.60024,2470.404,2021-11-16T08:29:09Z
2021-11-16T06:30:46Z,42.805,6.029,13.2996,4.60033,2470.39,2021-11-16T08:32:12Z
2021-11-16T06:33:49Z,42.805,6.029,13.2993,4.60023,2470.45,2021-11-16T08:35:15Z
2021-11-16T06:36:52Z,42.805,6.029,13.2998,4.60036,2470.427,2021-11-16T08:38:19Z
2021-11-16T06:39:56Z,42.805,6.029,13.3002,4.60026,2470.437,2021-11-16T08:41:22Z
2021-11-16T06:42:59Z,42.805,6.029,13.2993,4.60029,2470.413,2021-11-16T08:44:25Z
2021-11-16T06:46:02Z,42.805,6.029,13.2993,4.60023,2470.413,2021-11-16T08:47:28Z
2021-11-16T06:49:05Z,42.805,6.029,13.2998,4.60032,2470.437,2021-11-16T08:50:31Z
2021-11-16T06:52:08Z,42.805,6.029,13.2999,4.60024,2470.413,2021-11-16T08:53:34Z
2021-11-16T06:55:11Z,42.805,6.029,13.2998,4.60032,2470.437,2021-11-16T08:56:37Z
2021-11-16T06:58:14Z,42.805,6.029,13.2999,4.60030,2470.437,2021-11-16T08:59:40Z
2021-11-16T07:01:17Z,42.805,6.029,13.3000,4.60028,2470.39,2021-11-16T09:02:44Z
2021-11-16T07:04:21Z,42.805,6.029,13.2999,4.60036,2470.427,2021-11-16T09:05:47Z
2021-11-16T07:07:24Z,42.805,6.029,13.2996,4.60038,2470.413,2021-11-16T09:08:50Z
2021-11-16T07:10:27Z,42.805,6.029,13.2991,4.60029,2470.413,2021-11-16T09:11:53Z
2021-11-16T07:13:30Z,42.805,6.029,13.2999,4.60026,2470.427,2021-11-16T09:14:56Z
2021-11-16T07:16:33Z,42.805,6.029,13.2995,4.60033,2470.413,2021-11-16T09:17:59Z
2021-11-16T07:19:36Z,42.805,6.029,13.3002,4.60038,2470.404,2021-11-16T09:21:02Z
2021-11-16T07:22:39Z,42.805,6.029,13.2995,4.60029,2470.427,2021-11-16T09:24:05Z
2021-11-16T07:25:42Z,42.805,6.029,13.2998,4.60025,2470.366,2021-11-16T09:27:09Z
2021-11-16T07:28:46Z,42.805,6.029,13.3003,4.60027,2470.413,2021-11-16T09:30:12Z
2021-11-16T07:31:49Z,42.805,6.029,13.3000,4.60022,2470.413,2021-11-16T09:33:15Z
2021-11-16T07:34:52Z,42.805,6.029,13.2996,4.60022,2470.39,2021-11-16T09:36:18Z
2021-11-16T07:37:55Z,42.805,6.029,13.3001,4.60025,2470.413,2021-11-16T09:39:21Z
2021-11-16T07:40:58Z,42.805,6.029,13.2999,4.60024,2470.366,2021-11-16T09:42:24Z
2021-11-16T07:44:01Z,42.805,6.029,13.2993,4.60022,2470.427,2021-11-16T09:45:27Z
2021-11-16T07:47:04Z,42.805,6.029,13.2996,4.60036,2470.427,2021-11-16T09:48:30Z
2021-11-16T07:50:07Z,42.805,6.029,13.3000,4.60024,2470.413,2021-11-16T09:51:34Z
2021-11-16T07:53:11Z,42.805,6.029,13.3000,4.60039,2470.404,2021-11-16T09:54:37Z
2021-11-16T07:56:14Z,42.805,6.029,13.2996,4.60023,2470.366,2021-11-16T09:57:40Z
2021-11-16T07:59:17Z,42.805,6.029,13.2996,4.60024,2470.413,2021-11-16T10:00:43Z
2021-11-16T08:02:20Z,42.805,6.029,13.2991,4.60026,2470.404,2021-11-16T10:03:46Z
2021-11-16T08:05:23Z,42.805,6.029,13.2995,4.60025,2470.39,2021-11-16T10:06:49Z
2021-11-16T08:08:26Z,42.805,6.029,13.2999,4.60036,2470.39,2021-11-16T10:09:52Z
2021-11-16T08:11:29Z,42.805,6.029,13.3001,4.60029,2470.413,2021-11-16T10:12:55Z
2021-11-16T08:14:32Z,42.805,6.029,13.2998,4.60034,2470.427,2021-11-16T10:15:59Z
2021-11-16T08:17:36Z,42.805,6.029,13.2997,4.60021,2470.376,2021-11-16T10:19:02Z
2021-11-16T08:20:39Z,42.805,6.029,13.2995,4.60024,2470.413,2021-11-16T10:22:05Z
2021-11-16T08:23:42Z,42.805,6.029,13.3000,4.60039,2470.45,2021-11-16T10:25:08Z
2021-11-16T08:26:45Z,42.805,6.029,13.2993,4.60031,2470.427,2021-11-16T10:28:11Z
2021-11-16T08:29:48Z,42.805,6.029,13.2993,4.60031,2470.404,2021-11-16T10:31:14Z
2021-11-16T08:32:51Z,42.805,6.029,13.3004,4.60031,2470.404,2021-11-16T10:34:17Z
2021-11-16T08:35:54Z,42.805,6.029,13.2995,4.60029,2470.404,2021-11-16T10:37:20Z
2021-11-16T08:38:57Z,42.805,6.029,13.3001,4.60040,2470.39,2021-11-16T10:40:24Z
2021-11-16T08:42:01Z,42.805,6.029,13.3000,4.60038,2470.39,2021-11-16T10:43:27Z
2021-11-16T08:45:04Z,42.805,6.029,13.3002,4.60036,2470.366,2021-11-16T10:46:30Z
2021-11-16T08:48:07Z,42.805,6.029,13.2996,4.60034,2470.366,2021-11-16T10:49:33Z
2021-11-16T08:51:10Z,42.805,6.029,13.2993,4.60025,2470.39,2021-11-16T10:52:36Z
2021-11-16T08:54:13Z,42.805,6.029,13.2997,4.60037,2470.404,2021-11-16T10:55:39Z
2021-11-16T08:57:16Z,42.805,6.029,13.2994,4.60029,2470.366,2021-11-16T10:58:42Z
2021-11-16T09:00:19Z,42.805,6.029,13.2998,4.60056,2470.343,2021-11-16T11:01:46Z
2021-11-16T09:03:22Z,42.805,6.029,13.3003,4.60031,2470.38,2021-11-16T11:04:49Z
2021-11-16T09:06:26Z,42.805,6.029,13.3000,4.60038,2470.366,2021-11-16T11:07:52Z
2021-11-16T09:09:29Z,42.805,6.029,13.3000,4.60026,2470.404,2021-11-16T11:10:55Z
2021-11-16T09:12:32Z,42.805,6.029,13.2998,4.60037,2470.366,2021-11-16T11:13:58Z
2021-11-16T09:15:35Z,42.805,6.029,13.2997,4.60035,2470.399,2021-11-16T11:17:01Z
2021-11-16T09:18:38Z,42.805,6.029,13.3000,4.60042,2470.404,2021-11-16T11:20:04Z
2021-11-16T09:21:41Z,42.805,6.029,13.2998,4.60032,2470.39,2021-11-16T11:23:07Z
2021-11-16T09:24:44Z,42.805,6.029,13.2998,4.60042,2470.366,2021-11-16T11:26:11Z
2021-11-16T09:27:47Z,42.805,6.029,13.2996,4.60027,2470.357,2021-11-16T11:29:14Z
2021-11-16T09:30:51Z,42.805,6.029,13.3000,4.60044,2470.366,2021-11-16T11:32:17Z
2021-11-16T09:33:54Z,42.805,6.029,13.2996,4.60039,2470.343,2021-11-16T11:35:20Z
2021-11-16T09:36:57Z,42.805,6.029,13.2993,4.60026,2470.39,2021-11-16T11:38:23Z
2021-11-16T09:40:00Z,42.805,6.029,13.3002,4.60046,2470.366,2021-11-16T11:41:26Z
2021-11-16T09:43:03Z,42.805,6.029,13.3000,4.60044,2470.366,2021-11-16T11:44:29Z
2021-11-16T09:46:06Z,42.805,6.029,13.2996,4.60042,2470.366,2021-11-16T11:47:32Z
2021-11-16T09:49:10Z,42.805,6.029,13.2995,4.60032,2470.404,2021-11-16T11:50:36Z
2021-11-16T09:52:13Z,42.805,6.029,13.3000,4.60039,2470.404,2021-11-16T11:53:39Z
2021-11-16T09:55:16Z,42.805,6.029,13.2995,4.60031,2470.366,2021-11-16T11:56:42Z
2021-11-16T09:58:19Z,42.805,6.029,13.2997,4.60038,2470.366,2021-11-16T11:59:45Z
2021-11-16T10:01:22Z,42.805,6.029,13.2998,4.60036,2470.404,2021-11-16T12:02:48Z
2021-11-16T10:04:25Z,42.805,6.029,13.3001,4.60037,2470.357,2021-11-16T12:05:51Z
2021-11-16T10:07:28Z,42.805,6.029,13.2998,4.60033,2470.39,2021-11-16T12:08:54Z
2021-11-16T10:10:31Z,42.805,6.029,13.2999,4.60034,2470.357,2021-11-16T12:11:58Z
2021-11-16T10:13:35Z,42.805,6.029,13.2996,4.60030,2470.39,2021-11-16T12:15:01Z
2021-11-16T10:16:38Z,42.805,6.029,13.2995,4.60021,2470.366,2021-11-16T12:18:04Z
2021-11-16T10:19:41Z,42.805,6.029,13.2998,4.60031,2470.366,2021-11-16T12:21:07Z
2021-11-16T10:22:44Z,42.805,6.029,13.2997,4.60026,2470.357,2021-11-16T12:24:10Z
2021-11-16T10:25:47Z,42.805,6.029,13.2994,4.60023,2470.366,2021-11-16T12:27:13Z
2021-11-16T10:28:50Z,42.805,6.029,13.2994,4.60030,2470.39,2021-11-16T12:30:16Z
2021-11-16T10:31:53Z,42.805,6.029,13.2996,4.60029,2470.404,2021-11-16T12:33:19Z
2021-11-16T10:34:56Z,42.805,6.029,13.2996,4.60030,2470.366,2021-11-16T12:36:23Z
2021-11-16T10:38:00Z,42.805,6.029,13.2995,4.60027,2470.366,2021-11-16T12:39:26Z
2021-11-16T10:41:03Z,42.805,6.029,13.2996,4.60034,2470.404,2021-11-16T12:42:29Z
2021-11-16T10:44:06Z,42.805,6.029,13.2999,4.60035,2470.366,2021-11-16T12:45:32Z
2021-11-16T10:47:09Z,42.805,6.029,13.3000,4.60042,2470.366,2021-11-16T12:48:35Z
2021-11-16T10:50:12Z,42.805,6.029,13.2994,4.60030,2470.366,2021-11-16T12:51:38Z
2021-11-16T10:53:15Z,42.805,6.029,13.2997,4.60029,2470.366,2021-11-16T12:54:41Z
2021-11-16T10:56:18Z,42.805,6.029,13.3000,4.60037,2470.357,2021-11-16T12:57:44Z
2021-11-16T10:59:21Z,42.805,6.029,13.2992,4.60027,2470.366,2021-11-16T13:00:48Z
2021-11-16T11:02:25Z,42.805,6.029,13.2996,4.60029,2470.357,2021-11-16T13:03:51Z
2021-11-16T11:05:28Z,42.805,6.029,13.2997,4.60030,2470.343,2021-11-16T13:06:54Z
2021-11-16T11:08:31Z,42.805,6.029,13.2993,4.60023,2470.357,2021-11-16T13:09:57Z
2021-11-16T11:11:34Z,42.805,6.029,13.2993,4.60023,2470.343,2021-11-16T13:13:00Z
2021-11-16T11:14:37Z,42.805,6.029,13.2993,4.60029,2470.334,2021-11-16T13:16:03Z
2021-11-16T11:17:40Z,42.805,6.029,13.2993,4.60020,2470.366,2021-11-16T13:19:06Z
2021-11-16T11:20:44Z,42.805,6.029,13.2995,4.60030,2470.32,2021-11-16T13:22:10Z
2021-11-16T11:23:47Z,42.805,6.029,13.2998,4.60021,2470.357,2021-11-16T13:25:13Z
2021-11-16T11:26:50Z,42.805,6.029,13.2999,4.60033,2470.334,2021-11-16T13:28:16Z
2021-11-16T11:29:53Z,42.805,6.029,13.2993,4.60024,2470.366,2021-11-16T13:31:20Z
2021-11-16T11:32:57Z,42.805,6.029,13.2996,4.60036,2470.32,2021-11-16T13:34:23Z
2021-11-16T11:36:00Z,42.805,6.029,13.2991,4.60023,2470.366,2021-11-16T13:37:26Z
2021-11-16T11:39:03Z,42.805,6.029,13.2992,4.60026,2470.343,2021-11-16T13:40:29Z
2021-11-16T11:42:06Z,42.805,6.029,13.2991,4.60024,2470.32,2021-11-16T13:43:32Z
2021-11-16T11:45:09Z,42.805,6.029,13.2998,4.60033,2470.343,2021-11-16T13:46:35Z
2021-11-16T11:48:12Z,42.805,6.029,13.2998,4.60029,2470.31,2021-11-16T13:49:38Z
2021-11-16T11:51:15Z,42.805,6.029,13.2999,4.60029,2470.32,2021-11-16T13:52:42Z
2021-11-16T11:54:18Z,42.805,6.029,13.2999,4.60033,2470.343,2021-11-16T13:55:45Z
2021-11-16T11:57:22Z,42.805,6.029,13.2998,4.60032,2470.343,2021-11-16T13:58:48Z
2021-11-16T12:00:25Z,42.805,6.029,13.2998,4.60024,2470.334,2021-11-16T14:01:51Z
2021-11-16T12:03:28Z,42.805,6.029,13.2993,4.60032,2470.334,2021-11-16T14:04:54Z
2021-11-16T12:06:31Z,42.805,6.029,13.2995,4.60029,2470.357,2021-11-16T14:07:57Z
2021-11-16T12:09:34Z,42.805,6.029,13.2996,4.60027,2470.38,2021-11-16T14:11:00Z
2021-11-16T12:12:37Z,42.805,6.029,13.2996,4.60035,2470.343,2021-11-16T14:14:03Z
2021-11-16T12:15:40Z,42.805,6.029,13.2994,4.60026,2470.343,2021-11-16T14:17:07Z
2021-11-16T12:18:44Z,42.805,6.029,13.2993,4.60026,2470.357,2021-11-16T14:20:10Z
2021-11-16T12:21:47Z,42.805,6.029,13.2996,4.60027,2470.32,2021-11-16T14:23:13Z
2021-11-16T12:24:50Z,42.805,6.029,13.2998,4.60030,2470.334,2021-11-16T14:26:16Z
2021-11-16T12:27:53Z,42.805,6.029,13.2998,4.60026,2470.343,2021-11-16T14:29:19Z
2021-11-16T12:30:56Z,42.805,6.029,13.2996,4.60024,2470.343,2021-11-16T14:32:22Z
2021-11-16T12:33:59Z,42.805,6.029,13.2994,4.60023,2470.343,2021-11-16T14:35:25Z
2021-11-16T12:37:02Z,42.805,6.029,13.3001,4.60036,2470.343,2021-11-16T14:38:28Z
2021-11-16T12:40:05Z,42.805,6.029,13.2998,4.60032,2470.366,2021-11-16T14:41:32Z
2021-11-16T12:43:09Z,42.805,6.029,13.2997,4.60029,2470.343,2021-11-16T14:44:35Z
2021-11-16T12:46:12Z,42.805,6.029,13.2996,4.60029,2470.32,2021-11-16T14:47:38Z
2021-11-16T12:49:15Z,42.805,6.029,13.2996,4.60027,2470.366,2021-11-16T14:50:41Z
2021-11-16T12:52:18Z,42.805,6.029,13.2993,4.60019,2470.38,2021-11-16T14:53:44Z
2021-11-16T12:55:21Z,42.805,6.029,13.2994,4.60021,2470.32,2021-11-16T14:56:47Z
2021-11-16T12:58:24Z,42.805,6.029,13.3000,4.60035,2470.334,2021-11-16T14:59:50Z
2021-11-16T13:01:27Z,42.805,6.029,13.2993,4.60025,2470.334,2021-11-16T15:02:53Z
2021-11-16T13:04:30Z,42.805,6.029,13.3001,4.60031,2470.366,2021-11-16T15:05:57Z
2021-11-16T13:07:34Z,42.805,6.029,13.2995,4.60029,2470.343,2021-11-16T15:09:00Z
2021-11-16T13:10:37Z,42.805,6.029,13.2993,4.60034,2470.357,2021-11-16T15:12:03Z
2021-11-16T13:13:40Z,42.805,6.029,13.2993,4.60036,2470.343,2021-11-16T15:15:06Z
2021-11-16T13:16:43Z,42.805,6.029,13.2990,4.60021,2470.343,2021-11-16T15:18:09Z
2021-11-16T13:19:46Z,42.805,6.029,13.2996,4.60029,2470.343,2021-11-16T15:21:12Z
2021-11-16T13:22:49Z,42.805,6.029,13.2997,4.60026,2470.343,2021-11-16T15:24:15Z
2021-11-16T13:25:52Z,42.805,6.029,13.2992,4.60026,2470.33,2021-11-16T15:27:18Z
2021-11-16T13:28:55Z,42.805,6.029,13.2991,4.60022,2470.366,2021-11-16T15:30:22Z
2021-11-16T13:31:59Z,42.805,6.029,13.2993,4.60028,2470.366,2021-11-16T15:33:25Z
2021-11-16T13:35:02Z,42.805,6.029,13.2996,4.60023,2470.366,2021-11-16T15:36:28Z
2021-11-16T13:38:05Z,42.805,6.029,13.3000,4.60026,2470.343,2021-11-16T15:39:31Z
2021-11-16T13:41:08Z,42.805,6.029,13.2996,4.60033,2470.38,2021-11-16T15:42:34Z
2021-11-16T13:44:11Z,42.805,6.029,13.2997,4.60019,2470.357,2021-11-16T15:45:37Z
2021-11-16T13:47:14Z,42.805,6.029,13.3005,4.60029,2470.413,2021-11-16T15:48:40Z
2021-11-16T13:50:17Z,42.805,6.029,13.2996,4.60029,2470.404,2021-11-16T15:51:43Z
2021-11-16T13:53:20Z,42.805,6.029,13.2996,4.60027,2470.366,2021-11-16T15:54:47Z
2021-11-16T13:56:24Z,42.805,6.029,13.2991,4.60034,2470.39,2021-11-16T15:57:50Z
2021-11-16T13:59:27Z,42.805,6.029,13.2991,4.60019,2470.39,2021-11-16T16:00:53Z
2021-11-16T14:02:30Z,42.805,6.029,13.2996,4.60026,2470.404,2021-11-16T16:03:56Z
2021-11-16T14:05:33Z,42.805,6.029,13.2998,4.60026,2470.366,2021-11-16T16:06:59Z
2021-11-16T14:08:36Z,42.805,6.029,13.2993,4.60029,2470.366,2021-11-16T16:10:02Z
2021-11-16T14:11:39Z,42.805,6.029,13.3001,4.60031,2470.39,2021-11-16T16:13:05Z
2021-11-16T14:14:42Z,42.805,6.029,13.3000,4.60029,2470.404,2021-11-16T16:16:08Z
2021-11-16T14:17:45Z,42.805,6.029,13.2998,4.60022,2470.404,2021-11-16T16:19:12Z
2021-11-16T14:20:49Z,42.805,6.029,13.2994,4.60021,2470.404,2021-11-16T16:22:15Z
2021-11-16T14:23:52Z,42.805,6.029,13.2992,4.60025,2470.39,2021-11-16T16:25:18Z
2021-11-16T14:26:55Z,42.805,6.029,13.2992,4.60024,2470.413,2021-11-16T16:28:21Z
2021-11-16T14:29:58Z,42.805,6.029,13.2994,4.60024,2470.474,2021-11-16T16:31:24Z
2021-11-16T14:33:01Z,42.805,6.029,13.2999,4.60026,2470.413,2021-11-16T16:34:27Z
2021-11-16T14:36:04Z,42.805,6.029,13.2998,4.60031,2470.413,2021-11-16T16:37:30Z
2021-11-16T14:39:07Z,42.805,6.029,13.2999,4.60030,2470.39,2021-11-16T16:40:33Z
2021-11-16T14:42:11Z,42.805,6.029,13.2994,4.60024,2470.45,2021-11-16T16:43:37Z
2021-11-16T14:45:14Z,42.805,6.029,13.2993,4.60019,2470.413,2021-11-16T16:46:40Z
2021-11-16T14:48:17Z,42.805,6.029,13.2997,4.60017,2470.427,2021-11-16T16:49:43Z
2021-11-16T14:51:20Z,42.805,6.029,13.2990,4.60026,2470.39,2021-11-16T16:52:46Z
2021-11-16T14:54:23Z,42.805,6.029,13.2996,4.60026,2470.437,2021-11-16T16:55:49Z
2021-11-16T14:57:26Z,42.805,6.029,13.2993,4.60024,2470.437,2021-11-16T16:58:52Z
2021-11-16T15:00:29Z,42.805,6.029,13.2996,4.60024,2470.45,2021-11-16T17:01:55Z